Regional Weather Roundup
Issued by NWS Sioux Falls, SD

Home | Current Version | Previous Version | Graphics & Text | Print | Product List | Glossary Off
Versions: 1 2 3 4 5 6 7 8 9 10 11 12 13 14 15 16 17 18 19 20 21 22 23 24 25 26 27 28 29 30 31 32 33 34 35 36 37 38 39 40 41 42 43 44 45 46 47 48 49 50

136
ASUS43 KFSD 022210
RWRFSD

WEATHER ROUNDUP FOR SE SOUTH DAKOTA/SW MINNESOTA/NW IOWA
NATIONAL WEATHER SERVICE SIOUX FALLS SD
400 PM CST FRI DEC 02 2016

NOTE: "FAIR" INDICATES FEW OR NO CLOUDS BELOW 12,000 FEET WITH NO
SIGNIFICANT WEATHER AND OR OBSTRUCTIONS TO VISIBILITY.


SDZ038>040-050-052>070-022300-
SOUTHEAST SOUTH DAKOTA

CITY           SKY/WX    TMP DP  RH WIND       PRES   REMARKS
BROOKINGS      CLOUDY    27  20  75 NW12      30.27R WCI  17
CHAMBERLAIN    CLOUDY    33  30  90 CALM      30.27S
HURON          CLOUDY    30  24  78 NW7       30.30R WCI  23
MADISON        CLOUDY    28  25  86 NW13      30.28R WCI  18
MITCHELL       CLOUDY    32  26  78 N5        30.31R WCI  27
SIOUX FALLS    CLOUDY    32  25  75 W7        30.29R WCI  26
WINNER         CLOUDY    35  26  69 CALM      30.26R
YANKTON        CLOUDY    36  25  64 NW7       30.30R
$$

MNZ071-072-080-081-089-090-097-098-022300-
SOUTHWEST MINNESOTA

CITY           SKY/WX    TMP DP  RH WIND       PRES   REMARKS
FAIRMONT       CLOUDY    29  23  78 NW9       30.30R WCI  20
JACKSON        CLOUDY    30  23  74 NW6       30.28S WCI  24
LUVERNE        CLOUDY    32  25  74 NW8       30.29R WCI  25
MARSHALL       CLOUDY    29  23  78 NW9       30.29R WCI  20
MONTEVIDEO     CLOUDY    28  28 100 NW5       30.31R WCI  23
PIPESTONE      CLOUDY    30  21  69 W14       30.26R WCI  20
REDWOOD FALLS  CLOUDY    29  20  69 NW9       30.29R WCI  20
TRACY          CLOUDY    30  26  83 NW6       30.28R WCI  24
WINDOM         CLOUDY    30  25  80 CALM      30.28R
WORTHINGTON    CLOUDY    31  24  75 W8        30.28R WCI  23
$$

IAZ001>003-012>014-020>022-031-032-NEZ013-014-SDZ071-022300-
NORTHWEST IOWA

CITY           SKY/WX    TMP DP  RH WIND       PRES   REMARKS
CHEROKEE       CLOUDY    35  29  81 N3        30.29S
DENISON        CLOUDY    36  32  87 CALM      30.27R
ESTHERVILLE    CLOUDY    30  25  81 NW7       30.29R WCI  23
LE MARS        CLOUDY    36  30  80 CALM      30.30S
ORANGE CITY    CLOUDY    34  30  86 CALM      30.28S
SHELDON        CLOUDY    34  28  80 W8        30.27S WCI  27
SIOUX CITY     CLOUDY    39  30  70 NW3       30.30R
SPENCER        CLOUDY    33  25  72 W10       30.29S WCI  25
STORM LAKE       N/A     34  28  80 N7        30.27F WCI  28
$$

ABBREVIATIONS USED IN REMARKS
   TC - TEMPERATURE IN CELSIUS
  WCI - WIND CHILL INDEX
   HX - HEAT INDEX
  VSB - VISIBILITY





USA.gov is the U.S. government's official web portal to all federal, state and local government web resources and services.